[[{"header":{"parameterUnit":"m.s-1","parameterCategory":1,"la1":30.2991,"la2":30.254,"lo1":-89.0895,"lo2":-89.0444,"dy":0.0017,"dx":0.0017,"nx":28,"ny":28,"refTime":"2024-02-08T03:00:00:Z","depth":0,"parameterNumber":2,"parameterNumberName":"U-component_of_WINDS"},"data":[0,0,0,0,0,0,0,0,0,0,0,0,0,0,0,0,0,0,0,0,0,0,0,0,0,0,0,0,0,0,0,0,0,0,0,0,0,0,0,0,0,0,0,0,0,0,0,0,0,0,0,0,0,0,0,0,0,0,-3.311,-3.3111,0,-3.3219,-3.322,-3.3221,-3.3239,-3.3238,-3.3237,-3.3236,-3.3348,-3.3351,-3.3355,0,0,0,0,0,0,0,0,0,0,0,0,0,-3.2919,-3.2922,-3.311,-3.3111,-3.3113,-3.3218,-3.322,-3.3221,-3.3239,-3.3238,-3.3237,-3.3236,-3.3346,-3.3351,-3.3356,0,0,0,0,0,0,0,0,0,0,0,0,0,-3.3012,-3.2924,-3.311,-3.3134,-3.3138,-3.3218,-3.322,-3.3222,-3.3239,-3.3238,-3.3237,-3.3235,-3.3345,-3.3351,-3.3356,-3.342,0,0,-3.3374,-3.3376,0,0,0,0,0,0,0,0,-3.3007,-3.3019,-3.3129,-3.3133,-3.3137,-3.3214,-3.3193,-3.3288,-3.324,-3.3201,-3.3236,-3.3235,-3.3304,-3.3313,-3.3337,-3.3425,-3.343,-3.3374,-3.3378,-3.338,-3.3382,0,0,0,0,0,0,0,-3.3,-3.3015,-3.3153,-3.3131,-3.3135,-3.314,-3.3152,-3.3212,-3.3259,-3.3204,-3.3206,-3.3218,-3.3306,-3.3331,-3.334,-3.3431,-3.3374,-3.3379,-3.3383,-3.3385,-3.3578,-3.3579,0,0,0,0,0,0,-3.2989,-3.3009,-3.315,-3.3156,-3.3067,-3.3145,-3.3158,-3.3191,-3.3259,-3.3268,-3.3219,-3.3219,-3.3322,-3.3333,-3.3344,-3.3422,-3.338,-3.3386,-3.3389,-3.3576,-3.3578,-3.358,0,0,0,0,0,0,-3.2985,-3.3002,-3.3145,-3.3083,-3.3102,-3.315,-3.3186,-3.3193,-3.3218,-3.327,-3.3279,-3.3236,-3.3321,-3.3335,-3.3401,-3.3426,-3.3388,-3.3393,-3.3574,-3.3577,-3.3579,-3.358,0,0,0,0,0,0,-3.298,-3.3,-3.3024,-3.3084,-3.3105,-3.32,-3.3188,-3.3197,-3.3228,-3.3229,-3.3288,-3.3297,-3.3321,-3.3392,-3.3406,-3.3433,-3.3398,-3.3572,-3.3575,-3.3578,-3.3577,-3.3582,-3.3585,0,0,0,0,0,-3.2973,-3.302,-3.3026,-3.3042,-3.3136,-3.3202,-3.3214,-3.3241,-3.323,-3.3255,-3.3289,-3.3295,-3.3422,-3.3399,-3.3415,-3.3444,-3.357,-3.3574,-3.3578,-3.3576,-3.3581,-3.3585,0,0,0,0,0,0,-3.2963,-3.3028,-3.3035,-3.3103,-3.3147,-3.3204,-3.3236,-3.3246,-3.3293,-3.3292,-3.3324,-3.3337,-3.3401,-3.3429,-3.3403,-3.3509,-3.3495,-3.3502,-3.3488,-3.3493,-3.3497,-3.3488,-3.3403,0,0,0,0,0,-3.2968,-3.3016,-3.3071,-3.3126,-3.3147,-3.3188,-3.3218,-3.3235,-3.3281,-3.33,-3.3338,-3.3383,-3.3433,-3.3465,-3.3514,-3.3583,-3.3596,-3.3611,-3.3615,-3.3618,-3.3623,-3.3661,-3.3668,-3.3592,-3.3592,-3.3592,0,0,-3.298,-3.3022,-3.305,-3.3125,-3.316,-3.3209,-3.3203,-3.3255,-3.3291,-3.3308,-3.3371,-3.3401,-3.3454,-3.3521,-3.3552,-3.3546,-3.3647,-3.3623,-3.3624,-3.3628,-3.3666,-3.3673,-3.3679,-3.3595,-3.3594,-3.3594,0,0,-3.3027,-3.3064,-3.3113,-3.3149,-3.3204,-3.3231,-3.3243,-3.33,-3.332,-3.3385,-3.3398,-3.3443,-3.3528,-3.3565,-3.3594,-3.3656,-3.3664,-3.3672,-3.3692,-3.3729,-3.3735,-3.374,-3.3761,-3.3769,-3.3677,-3.3677,-3.3677,0,-3.3034,-3.3108,-3.3137,-3.3188,-3.322,-3.3239,-3.3289,-3.3323,-3.339,-3.3412,-3.3405,-3.3513,-3.355,-3.3626,-3.3641,-3.3665,-3.3679,-3.3664,-3.3731,-3.3737,-3.3743,-3.3763,-3.3771,-3.3678,-3.3678,-3.3678,-3.3678,0,-3.3114,-3.3165,-3.3199,-3.3263,-3.33,-3.335,-3.3388,-3.3421,-3.3436,-3.3464,-3.353,-3.3575,-3.3633,-3.3653,-3.3668,-3.3731,-3.3726,-3.3725,-3.3711,-3.375,-3.377,-3.3778,-3.3678,-3.3678,-3.3678,-3.3678,0,0,-3.3155,-3.3237,-3.3248,-3.3278,-3.334,-3.338,-3.3432,-3.3489,-3.3517,-3.3564,-3.3607,-3.368,-3.368,-3.3713,-3.3733,-3.3766,-3.3811,-3.3761,-3.3763,-3.3768,-3.3883,-3.3882,-3.389,-3.3817,-3.3819,-3.382,-3.3878,0,-3.3207,-3.3299,-3.3328,-3.3405,-3.3452,-3.3471,-3.3517,-3.356,-3.3588,-3.3632,-3.3664,-3.3714,-3.3711,-3.3731,-3.3764,-3.3798,-3.3834,-3.3795,-3.3858,-3.386,-3.3842,-3.3901,-3.39,-3.3952,-3.3886,-3.3887,-3.3888,0,-3.328,-3.3328,-3.341,-3.3467,-3.3488,-3.3527,-3.3582,-3.3625,-3.3675,-3.3693,-3.3731,-3.3749,-3.3804,-3.3788,-3.3864,-3.3837,-3.3865,-3.3886,-3.3888,-3.3894,-3.3875,-3.3907,-3.397,-3.3977,-3.3901,-3.39,-3.3899,0,-3.33,-3.3385,-3.3445,-3.347,-3.3538,-3.3566,-3.3596,-3.3644,-3.3677,-3.3725,-3.3747,-3.3801,-3.383,-3.3872,-3.3904,-3.389,-3.3977,-3.3965,-3.3993,-3.3993,-3.4009,-3.4007,-3.4076,-3.403,-3.403,-3.403,-3.4029,0,-3.3354,-3.3403,-3.3455,-3.3491,-3.3547,-3.3581,-3.3635,-3.3666,-3.3709,-3.3752,-3.3773,-3.3813,-3.3853,-3.3899,-3.3924,-3.3983,-3.3996,-3.4012,-3.4018,-3.401,-3.4007,-3.4027,-3.4023,-3.4032,-3.4031,-3.4031,-3.4031,0,-3.3385,-3.3421,-3.3488,-3.3547,-3.3564,-3.3602,-3.3653,-3.3689,-3.3719,-3.3774,-3.3788,-3.3835,-3.389,-3.3926,-3.3996,-3.4013,-3.4077,-3.4083,-3.406,-3.4062,-3.4089,-3.4085,-3.4171,-3.4183,-3.413,-3.4131,-3.4131,0,-3.3416,-3.3454,-3.3518,-3.3549,-3.3578,-3.3627,-3.3661,-3.3696,-3.373,-3.379,-3.382,-3.3876,-3.3922,-3.4009,-3.405,-3.4103,-3.411,-3.4136,-3.4118,-3.4108,-3.4109,-3.4105,-3.4109,-3.4138,-3.4139,-3.4139,-3.4139,0,-3.3467,-3.3484,-3.3532,-3.3586,-3.3626,-3.367,-3.3715,-3.3739,-3.3782,-3.3819,-3.3876,-3.3912,-3.3984,-3.4039,-3.4097,-3.4128,-3.4141,-3.4145,-3.4155,-3.4145,-3.413,-3.4137,-3.4066,-3.4143,-3.4142,-3.4142,-3.4142,-3.4142,-3.3498,-3.3533,-3.3584,-3.3636,-3.3674,-3.3715,-3.3752,-3.3787,-3.3835,-3.3896,-3.3914,-3.3973,-3.4023,-3.4102,-3.4134,-3.418,-3.4178,-3.4191,-3.4195,-3.4197,-3.4196,-3.4124,-3.4191,-3.4191,-3.4191,-3.4191,-3.4191,0,-3.355,-3.3583,-3.3632,-3.3694,-3.3735,-3.3745,-3.3795,-3.3829,-3.388,-3.3926,-3.3972,-3.4037,-3.4091,-3.4136,-3.4192,-3.4221,-3.4228,-3.4234,-3.4231,-3.4238,-3.4196,-3.4182,-3.4227,-3.4227,-3.4227,-3.4227,-3.4227,-3.4227,-3.3581,-3.364,-3.3663,-3.3741,-3.3775,-3.3832,-3.386,-3.3899,-3.3935,-3.4007,-3.4052,-3.4082,-3.4127,-3.4187,-3.4237,-3.4249,-3.4269,-3.4273,-3.4286,-3.4246,-3.4241,-3.4237,-3.4224,-3.4277,-3.4277,-3.4324,-3.4325,-3.4325]},{"header":{"parameterUnit":"m.s-1","parameterCategory":1,"la1":30.2991,"la2":30.254,"lo1":-89.0895,"lo2":-89.0444,"dy":0.0017,"dx":0.0017,"nx":28,"ny":28,"refTime":"2024-02-08T03:00:00:Z","depth":0,"parameterNumber":3,"parameterNumberName":"V-component_of_WINDS"},"data":[0,0,0,0,0,0,0,0,0,0,0,0,0,0,0,0,0,0,0,0,0,0,0,0,0,0,0,0,0,0,0,0,0,0,0,0,0,0,0,0,0,0,0,0,0,0,0,0,0,0,0,0,0,0,0,0,0,0,1.8774,1.8775,0,1.8876,1.8877,1.8878,1.8944,1.8944,1.8944,1.8945,1.9047,1.9049,1.9052,0,0,0,0,0,0,0,0,0,0,0,0,0,1.8634,1.8636,1.8774,1.8775,1.8776,1.8876,1.8877,1.8878,1.8943,1.8944,1.8944,1.8945,1.9046,1.9049,1.9052,0,0,0,0,0,0,0,0,0,0,0,0,0,1.8711,1.8637,1.8773,1.8821,1.8826,1.8875,1.8877,1.8879,1.8943,1.8944,1.8945,1.8945,1.9045,1.9049,1.9052,1.9062,0,0,1.9063,1.9064,0,0,0,0,0,0,0,0,1.8707,1.8716,1.8812,1.8817,1.8823,1.8898,1.8865,1.894,1.8943,1.8899,1.8945,1.8945,1.8997,1.9004,1.9022,1.9067,1.9071,1.9063,1.9065,1.9067,1.9068,0,0,0,0,0,0,0,1.8701,1.8712,1.8814,1.8814,1.882,1.8837,1.8848,1.888,1.8943,1.8903,1.8908,1.8919,1.9,1.9018,1.9025,1.9072,1.9063,1.9066,1.9068,1.907,1.9133,1.9132,0,0,0,0,0,0,1.8689,1.8707,1.8811,1.8817,1.8765,1.8839,1.8852,1.8873,1.8943,1.8954,1.8918,1.8922,1.9012,1.9021,1.9029,1.9047,1.9067,1.907,1.9072,1.9133,1.9133,1.9132,0,0,0,0,0,0,1.8685,1.8697,1.8807,1.8764,1.8779,1.884,1.8864,1.8875,1.8894,1.8955,1.8966,1.8926,1.9013,1.9024,1.9054,1.9051,1.9072,1.9075,1.9134,1.9133,1.9132,1.9081,0,0,0,0,0,0,1.8681,1.8696,1.87,1.8763,1.8781,1.883,1.8864,1.8876,1.89,1.8905,1.8965,1.8975,1.9014,1.9048,1.9057,1.9056,1.9078,1.9134,1.9133,1.9133,1.9083,1.9079,1.9075,0,0,0,0,0,1.8676,1.8681,1.87,1.8712,1.8788,1.883,1.884,1.8885,1.8899,1.8904,1.8944,1.8973,1.9049,1.9051,1.9061,1.9061,1.9135,1.9134,1.9133,1.9085,1.908,1.9075,0,0,0,0,0,0,1.8614,1.869,1.8712,1.8737,1.8777,1.8841,1.8849,1.8877,1.8913,1.8917,1.8971,1.8984,1.9009,1.9038,1.9038,1.9076,1.9096,1.9097,1.9056,1.9051,1.9047,1.904,1.9081,0,0,0,0,0,1.8604,1.8632,1.8696,1.8712,1.8731,1.8786,1.8806,1.8838,1.8881,1.8898,1.8939,1.8979,1.9013,1.9033,1.9067,1.9087,1.9102,1.9093,1.9088,1.9085,1.9085,1.9101,1.9098,1.9129,1.9129,1.9129,0,0,1.8582,1.8627,1.8641,1.8701,1.8735,1.8764,1.88,1.8828,1.885,1.8902,1.8934,1.8965,1.9014,1.904,1.9053,1.9065,1.908,1.9083,1.908,1.9083,1.9099,1.9096,1.9094,1.9128,1.9128,1.9128,0,0,1.8557,1.8593,1.8612,1.8646,1.8698,1.8735,1.8739,1.88,1.8823,1.8856,1.8897,1.8923,1.8978,1.9012,1.9036,1.9026,1.9055,1.9035,1.9013,1.9028,1.9025,1.9023,1.9022,1.902,1.9035,1.9035,1.9035,0,1.8524,1.8569,1.8617,1.8644,1.867,1.872,1.8739,1.877,1.8829,1.8846,1.8858,1.8931,1.8966,1.9002,1.9,1.9017,1.9025,1.9029,1.9022,1.902,1.9019,1.9018,1.9017,1.9033,1.9033,1.9033,1.9034,0,1.8526,1.8556,1.8565,1.8623,1.865,1.8672,1.8725,1.8746,1.8775,1.8811,1.8845,1.889,1.8934,1.8945,1.8973,1.8985,1.8991,1.9011,1.9033,1.9013,1.9013,1.9013,1.9029,1.903,1.9031,1.9031,0,0,1.8465,1.8552,1.8554,1.8582,1.8644,1.8669,1.8694,1.8739,1.8756,1.8796,1.8819,1.8866,1.8886,1.8914,1.8946,1.8958,1.895,1.8978,1.898,1.8973,1.8968,1.8953,1.8952,1.8969,1.8969,1.8969,1.8965,0,1.8451,1.85,1.8546,1.8578,1.8608,1.8656,1.8679,1.8719,1.8753,1.8783,1.882,1.8853,1.8876,1.8894,1.8908,1.8948,1.895,1.8949,1.8992,1.8993,1.898,1.8952,1.8936,1.8929,1.8965,1.8965,1.8965,0,1.8442,1.8481,1.8517,1.8578,1.8592,1.8611,1.8658,1.8685,1.8732,1.8756,1.8788,1.8823,1.8852,1.8869,1.8911,1.891,1.893,1.8952,1.8953,1.896,1.8979,1.8959,1.8928,1.8927,1.8965,1.8965,1.8965,0,1.8397,1.8458,1.8489,1.8511,1.8582,1.8595,1.8625,1.8672,1.8697,1.8737,1.8754,1.8796,1.8819,1.8851,1.8896,1.8904,1.8934,1.8955,1.8955,1.8954,1.896,1.896,1.8933,1.8971,1.8971,1.8971,1.8971,0,1.8377,1.8398,1.847,1.8488,1.8513,1.8565,1.8588,1.8622,1.8664,1.8691,1.8734,1.8758,1.8816,1.8846,1.8882,1.8912,1.8922,1.8942,1.8952,1.894,1.8937,1.8955,1.8957,1.897,1.897,1.897,1.897,0,1.8331,1.838,1.8417,1.8481,1.8498,1.8514,1.8569,1.859,1.8626,1.8659,1.867,1.8728,1.8766,1.8815,1.8868,1.8892,1.8919,1.8932,1.8904,1.891,1.8908,1.8908,1.8894,1.8895,1.8929,1.8929,1.8928,0,1.8317,1.8334,1.8401,1.8423,1.8452,1.8485,1.8511,1.8563,1.8588,1.8644,1.8658,1.87,1.8736,1.8796,1.8842,1.8884,1.89,1.8892,1.8906,1.8894,1.8902,1.8901,1.8904,1.8888,1.8888,1.8887,1.8887,0,1.8286,1.831,1.8346,1.8391,1.8421,1.8459,1.8499,1.8513,1.8573,1.8599,1.864,1.8669,1.8724,1.8766,1.8814,1.8845,1.8876,1.8882,1.8885,1.8873,1.8856,1.8867,1.8895,1.8882,1.8883,1.8883,1.8883,1.8883,1.8257,1.8275,1.8326,1.8366,1.8401,1.8437,1.846,1.8501,1.8536,1.8586,1.8614,1.8654,1.8702,1.877,1.88,1.8832,1.8843,1.8847,1.8848,1.8848,1.8845,1.885,1.8841,1.8841,1.8841,1.8841,1.8841,0,1.823,1.8266,1.8301,1.8356,1.8387,1.8415,1.846,1.8484,1.852,1.8562,1.8598,1.8645,1.8686,1.8737,1.8781,1.8797,1.8813,1.8807,1.8807,1.8815,1.8832,1.8826,1.8794,1.8794,1.8794,1.8794,1.8794,1.8794,1.822,1.8254,1.8283,1.8335,1.837,1.8411,1.8435,1.8469,1.8503,1.8555,1.859,1.8623,1.8669,1.8717,1.8756,1.877,1.8785,1.8775,1.8793,1.8809,1.8813,1.8817,1.8812,1.8778,1.8778,1.8774,1.8774,1.8774]}]]